Terminal Aerodrome Forecast
Issued by NWS

Home | Current Version | Previous Version | Text Only | Print | Product List | Glossary On
Versions: 1 2 3 4 5 6 7 8 9 10 11 12 13 14 15 16 17 18 19 20 21 22 23 24 25 26 27 28 29 30 31 32 33 34 35 36 37 38 39 40 41 42 43 44 45 46 47 48 49
000
FTUS41 KCTP 251733
TAFBFD
TAF
KBFD 251733Z 2518/2618 26012G22KT 2SM -SHSN BKN007 OVC015
      TEMPO 2518/2522 1 1/2SM -SHSN OVC012
     FM252200 27010G20KT P6SM VCSH BKN035
     FM260400 25007KT P6SM SCT250
     FM260900 25006KT P6SM OVC007
     FM261600 23007KT P6SM SCT250=

USA.gov is the U.S. government's official web portal to all federal, state and local government web resources and services.